{"data":{"norad_id":50500,"intl_designator":"2021-132AH","name":"ONEWEB-0429","alt_names":[],"object_type":"PAYLOAD","status":"ACTIVE","operator":null,"country":"UK","launch_date":"2021-12-27","launch_site_code":"TYMSC","launch_vehicle":null,"mission":null,"orbit_class":"UNKNOWN","rcs_meters":null,"size_class":null,"mass_kg":null,"dimensions":null,"purposes":["comms"],"wikipedia_slug":null,"has_3d_model":false,"image_url":null,"decayed_at":null,"tle_current":{"epoch":"2026-09-20T02:36:55.172160Z","epoch_age_seconds":59670,"freshness":"FRESH","line1":"1 50500U 21132AH  26263.10897190  .00000111  00000+0  24805-3 0  9997","line2":"2 50500  87.9158 316.5961 0001898  93.2245 266.9105 13.18687505234093","mean_motion":13.18687505,"eccentricity":0.0001898,"inclination_deg":87.9158,"raan_deg":316.5961,"arg_perigee_deg":93.2245,"mean_anomaly_deg":266.9105,"bstar":0.00024805,"rev_number":23409,"period_min":109.19948771335,"perigee_km":1188.300986232,"apogee_km":1191.1737513424,"semimajor_km":7567.8743687872,"source":"CELESTRAK","updated_at":"2026-09-20T09:00:44.706385Z"}}}